Location: Berlin
(38.3226°N, 75.2177°W)
Time: 18:22:46
(UTC+00:00)

ADEOS Rocket - Pass Details

Date: 26 October 2020
Orbit: 859 x 1306 km, 98.7° (Epoch: 03 December)

Event Time Altitude Azimuth Distance (km) Brightness Sun altitude
Rises 09:51:02 0° 189° (S) 3,474 5.8 -18.3°
Reaches altitude 10° 09:53:39 10° 198° (SSW) 2,511 5.0 -17.8°
Maximum altitude 09:58:38 35° 263° (W) 1,367 3.3 -16.8°
Drops below altitude 10° 10:03:38 10° 328° (NNW) 2,518 4.8 -15.8°
Sets 10:06:15 0° 337° (NNW) 3,485 5.6 -15.3°
